AirNav   Duncan Aviation - Near you to keep you flying
 
 1273 users online  

10C Galt Field Airport
Greenwood/Wonder Lake, Illinois, USA

GOING TO GREENWOOD/WONDER LAKE?


FAA INFORMATION EFFECTIVE 14 JULY 2022

Location

FAA Identifier: 10C
Lat/Long: 42-24-10.4000N 088-22-30.4000W
42-24.173333N 088-22.506667W
42.4028889,-88.3751111
(estimated)
Elevation: 875 ft. / 266.7 m (surveyed)
Variation: 02W (2000)
From city: 1 mile N of central business district of the associated city
Time zone: UTC -5 (UTC -6 during Standard Time)
Zip code: 60098

Airport Operations

Airport use: Open to the public
Activation date: 09/1958
Control tower: no
ARTCC: CHICAGO CENTER
FSS: KANKAKEE FLIGHT SERVICE STATION
NOTAMs facility: IKK (NOTAM-D service available)
Attendance: 0800-1700
Pattern altitude: 1675 ft. MSL
Wind indicator: lighted
Segmented circle: no
Beacon: white-green (lighted land airport)
Operates sunset to sunrise.

Airport Communications

CTAF/UNICOM: 122.8
CHICAGO APPROACH: 120.55
CHICAGO DEPARTURE: 120.55
WX AWOS-3 at BUU (18 nm N): 125.275 (262-757-0907)

Nearby radio navigation aids

VOR radial/distance  VOR name  Freq  Var
OBKr302/21.7NORTHBROOK VOR/DME113.0002W
DPAr356/30.8DUPAGE VOR/DME108.4002E
JVLr103/33.6JANESVILLE VOR/DME114.3003E

Airport Services

Fuel available: 100LL
Parking: hangars and tiedowns
Airframe service: MAJOR
Powerplant service: MAJOR
Bottled oxygen: NONE
Bulk oxygen: NONE

Runway Information

Runway 9/27

Dimensions: 2802 x 36 ft. / 854 x 11 m
Surface: asphalt, in good condition
Runway edge lights: non-standard
RY 09/27 NSTD LIRL WITH NSTD SPACING; 2669 FT LGTD AT NIGHT.
RUNWAY 9  RUNWAY 27
Latitude: 42-24.104972N42-24.119943N
Longitude: 088-22.882282W088-22.260242W
Elevation: 873.9 ft.847.9 ft.
Traffic pattern: leftleft
Runway heading: 090 magnetic, 088 true270 magnetic, 268 true
Displaced threshold: 415 ft.no
Markings: nonprecision, in good conditionnonprecision, in good condition
Runway end identifier lights: nono
Touchdown point: yes, no lightsno, no lights
Obstructions: none
RWY 09 HAS +10 FT TERRAIN 136 FT FROM RUNWAY END AND 5 FT LEFT OF RWY CENTERLINE. CLEAR 20:1 TO MARKED DISPLACED THRESHOLD
46 ft. tree, 1028 ft. from runway, 89 ft. left of centerline, 18:1 slope to clear

Runway 18/36

Dimensions: 2141 x 125 ft. / 653 x 38 m
Surface: turf, in fair condition
RUNWAY 18  RUNWAY 36
Latitude: 42-24.428267N42-24.076072N
Longitude: 088-22.432450W088-22.414980W
Elevation: 866.9 ft.854.6 ft.
Traffic pattern: leftleft
Runway heading: 180 magnetic, 178 true000 magnetic, 358 true
Displaced threshold: 213 ft.149 ft.
Markings: nonenone
Runway end identifier lights: nono
Touchdown point: yes, no lightsyes, no lights

Airport Ownership and Management from official FAA records

Ownership: Privately-owned
Owner: FLAGSHIP PHOENIX, INC
5112 GREENWOOD ROAD
WONDER LAKE, IL 60097
Phone 815-648-2433
OWNERS ARE CLAUDE & DIANE SONDAY; PHONE 847-542-1148
Manager: JUSTIN CLELAND
5112 GREENWOOD ROAD
GREENWOOD, IL 60097
Phone 815-648-2433
EMAIL ADDRESS: JUSTIN@FLYWITHJB.COM (ALL LOWER CASE)

Airport Operational Statistics

Aircraft based on the field: 32
Single engine airplanes: 30
Multi engine airplanes: 2
    
Aircraft operations: avg 110/day *
62% transient general aviation
38% local general aviation
* for 12-month period ending 31 May 2019

Additional Remarks

DEER ON & INVOF ARPT.
FOR CD CTC CHICAGO APCH AT 847-289-0926.
100LL SELF SERVE FUEL AVAILABLE 24 HR WITH CREDIT CARD

Instrument Procedures

NOTE: All procedures below are presented as PDF files. If you need a reader for these files, you should download the free Adobe Reader.

NOT FOR NAVIGATION. Please procure official charts for flight.
FAA instrument procedures published for use from 14 July 2022 at 0901Z to 11 August 2022 at 0900z.

 
IAPs - Instrument Approach Procedures
RNAV (GPS)-B **CHANGED**   download (168KB)
NOTE: Special Take-Off Minimums/Departure Procedures apply   download (478KB)

Other nearby airports with instrument procedures:

3CK - Lake in the Hills Airport (12 nm S)
C02 - Grand Geneva Resort Airport (13 nm N)
C81 - Campbell Airport (14 nm E)
KBUU - Burlington Municipal Airport (18 nm N)
C77 - Poplar Grove Airport (21 nm W)
 
Loc | Ops | Rwys | IFR | FBO | Links
Com | Nav | Svcs | Stats | Notes
Area around 10C (Galt Field Airport)
 
Road maps at: MapQuest Bing Google
 
Aerial photo
WARNING: Photo may not be current or correct
Aerial photo of 10C (Galt Field Airport)
Photo taken 30-Aug-2020
looking east.

Do you have a better or more recent aerial photo of Galt Field Airport that you would like to share? If so, please send us your photo.

 
Sectional chart

 
Airport distance calculator
Flying to Galt Field Airport? Find the distance to fly.

From to 10C

Sunrise and sunset
Times for 07-Aug-2022
 Local
(UTC-5)
 Zulu
(UTC)
Morning civil twilight05:2210:22
Sunrise05:5310:53
Sunset20:0501:05
Evening civil twilight20:3701:37

Current date and time
Zulu (UTC)  07-Aug-2022 17:32:09
Local (UTC-5)  07-Aug-2022 12:32:09
 
METAR
KBUU 
17nm N 
071715Z AUTO 23007KT 10SM OVC095 25/22 A3005 RMK AO2 T02460224 PWINO
KUGN 
23nm E 
071655Z 21010KT 10SM -RA OVC009 24/20 A3005 RMK AO2 SLP162 P0003 T02390200 $
KENW 
23nm NE 
071653Z 22007KT 2SM RA FEW032 OVC070 25/22 A3006 RMK AO2 RAB46 SLP173 P0002 T02500222 $
K57C 
24nm N 
071715Z AUTO 25010G14KT 10SM SCT012 OVC095 25/23 A3004 RMK AO2 T02460230
KPWK 
27nm SE 
071652Z 21007KT 9SM -RA FEW090 BKN110 24/23 A3008 RMK AO2 SLP182 P0005 T02440228
K06C 
28nm SE 
071715Z AUTO 22004KT 7SM SCT060 SCT070 OVC090 24/23 A3009 RMK AO2 P0002 T02350226
KDPA 
30nm S 
071652Z 23006KT 4SM RA BR BKN110 24/22 A3008 RMK AO2 SLP181 P0007 T02390222
KJVL 
31nm NW 
071645Z 22006KT 10SM -RA SCT120 23/23 A3005
KDKB 
32nm SW 
071715Z AUTO 24009KT 7SM RA BKN023 OVC029 23/23 A3011 RMK AO2 P0002 T02300225
KORD 
32nm SE 
071651Z 22006KT 10SM -RA FEW075 OVC100 24/22 A3008 RMK AO2 SLP181 P0005 T02390222
TAF
KENW 
23nm NE 
071410Z 0714/0812 22009KT 6SM -SHRA BR FEW018 OVC080 TEMPO 0714/0718 3SM RA BKN020 FM071800 23008KT P6SM OVC028 FM071900 23009KT P6SM OVC040 FM080200 VRB03KT 6SM -SHRA BR BKN070 FM080400 00000KT 6SM -SHRA BR VCTS BKN028CB FM080600 VRB03KT 6SM SHRA BR BKN021
NOTAMs
Click for the latest NOTAMs
NOTAMs are issued by the DoD/FAA and will open in a separate window not controlled by AirNav.

 

 
 

FBO, Fuel Providers, and Aircraft Ground Support

  
 Business Name 
 
 Contact 
 
 Services / Description 
 
Fuel Prices
 
Comments
  
 JB Aviation
815-648-2433
[web site]
[email]
Aviation fuel, Aircraft parking (ramp or tiedown), Hangars, Hangar leasing / sales, GPU / Power cart, Passenger terminal and lounge, Flight training, ...

More info about JB Aviation
Phillips 66
100LL
SS $6.99 
 Updated 02-Aug-2022
 
   1 read write
SS=Self service
Update Fuel Prices
 

Would you like to see your business listed on this page?

 If your business provides an interesting product or service to pilots, flight crews, aircraft, or users of the Galt Field Airport, you should consider listing it here.  To start the listing process, click on the button below
 
Add a business
 

Other Pages about Galt Field Airport

Update a link
 
Copyright © AirNav, LLC. All rights reserved. Privacy Policy  Contact